Location: El Manguito
(10.2358°N, 67.3634°W)
Time: 22:22:54
(UTC+00:00)

Aurora 2 Rocket - Pass Details

Date: 13 December 2025
Orbit: 385 x 1539 km, 25.0° (Epoch: 22 January)

Event Time Altitude Azimuth Distance (km) Brightness Sun altitude
Exits shadow 07:09:21 14° 84° (E) 2,559 6.1 -48.4°
Drops below altitude 10° 07:10:06 10° 82° (E) 2,789 6.3 -48.3°
Sets 07:12:32 0° 77° (ENE) 3,570 7.0 -47.7°
